星链-35071 (STARLINK-35071)

导读 | 豆包AI

STARLINK-35071是美国于2025年9月3日发射的星链卫星,隶属于SpaceX公司打造的星链星座。星链系统旨在为全球提供低延迟、高速率的宽带互联网服务,尤其覆盖偏远区域与网络基础设施匮乏地区,该卫星入轨后进一步扩充星链星座规模,提升星座全球服务覆盖能力与通信稳定性。

基本信息
目录编号:
65477
目录名称:
STARLINK-35071
国际标识:
2025-195V
轨道中心:
EARTH
卫星名称:
星链-35071
卫星全名:
星链-35071 (STARLINK-35071)
卫星状态:
在轨 (已飞行213 天)
发射日期:
2025-09-03 UTC
国别 :
美国 (US)
星等 :
--
轨道信息
数据来源 国际轨道数据 AOE轨道数据
星历时间 2026-04-03T20:37:46+0800
22小时前
查看轨道信息
2026-04-04T07:00:00+0800
12小时前
查看轨道信息
半长轴 6853.435km 6853.399km
偏心率 0.0001132 0.0001832
轨道倾角 53.160° 53.159°
近地点辐角 90.758° 72.400°
升交点赤经 143.002° 140.995°
平近点角 269.355° 149.336°
近地点 474.522km 474.006km
远地点 476.074km 476.518km
周期 94.107分钟 94.106分钟
每日圈数 15.301723 15.301844
详细信息
固有亮度:
5
最大亮度:
2.5
卫星平台:
Starlink V1.0
覆盖范围:
全球
运营商:
太空探索技术公司
运营商所在国:
美国
制造商(研发单位):
太空探索技术公司
制造商所在国:
美国
使用方式:
暂无
卫星简介
Starlink 计划是 SpaceX 推出的全球卫星互联网项目,通过发射低轨道卫星,为全球尤其是偏远地区提供高速、低延迟的互联网服务。自 2019 年起,Starlink 已部署数千颗卫星,旨在缩小全球数字鸿沟,推动互联网普及。该项目还为军事、航空等行业提供通信支持,带来广泛经济效益。
2D轨道图
3D轨道图
轨道高度分析图
轨道倾角分析图
轨道综合分析图
查看轨道综合分析图